Time,TemperatureF,DewpointF,PressureIn,WindDirection,WindDirectionDegrees,WindSpeedMPH,WindSpeedGustMPH,Humidity,HourlyPrecipIn,Conditions,Clouds,dailyrainin,SoftwareType,DateUTC
2013-05-08 00:04:00,72.0,48.3,29.79,ENE,77,8.0,22.0,43,0.00,,---,0.00,VWS V14.01,2013-05-08 05:04:00,
2013-05-08 00:09:00,71.9,48.2,29.79,ESE,103,11.0,22.0,43,0.00,,---,0.00,VWS V14.01,2013-05-08 05:09:00,
2013-05-08 00:14:00,71.9,48.8,29.79,East,96,15.0,22.0,44,0.00,,---,0.00,VWS V14.01,2013-05-08 05:14:00,
2013-05-08 00:19:00,71.8,48.7,29.79,East,101,10.0,22.0,44,0.00,,---,0.00,VWS V14.01,2013-05-08 05:19:00,
2013-05-08 00:24:00,71.8,49.3,29.79,East,99,13.0,22.0,45,0.00,,---,0.00,VWS V14.01,2013-05-08 05:24:00,
2013-05-08 00:29:00,71.8,49.3,29.79,ESE,114,12.0,22.0,45,0.00,,---,0.00,VWS V14.01,2013-05-08 05:29:00,
2013-05-08 00:34:00,71.8,49.3,29.79,East,87,11.0,16.0,45,0.00,,---,0.00,VWS V14.01,2013-05-08 05:34:00,
2013-05-08 00:39:00,71.8,49.3,29.79,ESE,110,9.0,19.0,45,0.00,,---,0.00,VWS V14.01,2013-05-08 05:39:00,
2013-05-08 00:45:00,71.8,49.3,29.79,ESE,104,12.0,19.0,45,0.00,,---,0.00,VWS V14.01,2013-05-08 05:45:00,
2013-05-08 00:50:00,71.7,49.2,29.79,SE,127,8.0,20.0,45,0.00,,---,0.00,VWS V14.01,2013-05-08 05:50:00,
2013-05-08 00:55:00,71.7,49.2,29.79,East,100,10.0,20.0,45,0.00,,---,0.00,VWS V14.01,2013-05-08 05:55:00,
2013-05-08 01:00:00,71.6,49.2,29.79,East,96,9.0,20.0,45,0.00,,---,0.00,VWS V14.01,2013-05-08 06:00:00,
2013-05-08 01:05:00,71.8,49.3,29.79,SE,133,9.0,23.0,45,0.00,,---,0.00,VWS V14.01,2013-05-08 06:05:00,
2013-05-08 01:10:00,71.8,49.3,29.79,East,101,13.0,23.0,45,0.00,,---,0.00,VWS V14.01,2013-05-08 06:10:00,
2013-05-08 01:15:00,71.6,49.2,29.79,ESE,103,9.0,23.0,45,0.00,,---,0.00,VWS V14.01,2013-05-08 06:15:00,
2013-05-08 01:20:00,71.6,49.2,29.79,SE,126,12.0,23.0,45,0.00,,---,0.00,VWS V14.01,2013-05-08 06:20:00,
2013-05-08 01:25:00,71.4,49.0,29.79,ESE,117,14.0,23.0,45,0.00,,---,0.00,VWS V14.01,2013-05-08 06:25:00,
2013-05-08 01:30:00,71.1,49.3,29.78,ESE,117,13.0,23.0,46,0.00,,---,0.00,VWS V14.01,2013-05-08 06:30:00,
2013-05-08 01:36:00,70.9,49.1,29.79,ESE,120,9.0,14.0,46,0.00,,---,0.00,VWS V14.01,2013-05-08 06:36:00,
2013-05-08 01:41:00,70.7,48.9,29.79,ESE,107,12.0,17.0,46,0.00,,---,0.00,VWS V14.01,2013-05-08 06:41:00,
2013-05-08 01:46:00,70.4,49.2,29.79,SE,135,7.0,17.0,47,0.00,,---,0.00,VWS V14.01,2013-05-08 06:46:00,
2013-05-08 01:51:00,70.2,49.0,29.79,SE,127,5.0,17.0,47,0.00,,---,0.00,VWS V14.01,2013-05-08 06:51:00,
2013-05-08 01:56:00,69.9,49.3,29.79,ESE,104,8.0,17.0,48,0.00,,---,0.00,VWS V14.01,2013-05-08 06:56:00,
2013-05-08 02:01:00,69.8,49.2,29.79,ESE,122,9.0,11.0,48,0.00,,---,0.00,VWS V14.01,2013-05-08 07:01:00,
2013-05-08 02:06:00,69.6,49.1,29.79,SE,136,8.0,15.0,48,0.00,,---,0.00,VWS V14.01,2013-05-08 07:06:00,
2013-05-08 02:11:00,69.4,49.4,29.79,SE,128,8.0,15.0,49,0.00,,---,0.00,VWS V14.01,2013-05-08 07:11:00,
2013-05-08 02:16:00,69.2,49.2,29.79,ESE,107,7.0,15.0,49,0.00,,---,0.00,VWS V14.01,2013-05-08 07:16:00,
2013-05-08 02:21:00,68.8,48.9,29.78,SE,141,7.0,15.0,49,0.00,,---,0.00,VWS V14.01,2013-05-08 07:21:00,
2013-05-08 02:27:00,68.6,49.2,29.78,SSE,162,5.0,15.0,50,0.00,,---,0.00,VWS V14.01,2013-05-08 07:27:00,
2013-05-08 02:32:00,68.5,49.2,29.78,ESE,110,9.0,10.0,50,0.00,,---,0.00,VWS V14.01,2013-05-08 07:32:00,
2013-05-08 02:37:00,68.5,49.2,29.78,East,86,5.0,11.0,50,0.00,,---,0.00,VWS V14.01,2013-05-08 07:37:00,
2013-05-08 02:42:00,68.4,49.1,29.78,ESE,110,6.0,11.0,50,0.00,,---,0.00,VWS V14.01,2013-05-08 07:42:00,
2013-05-08 02:47:00,68.3,49.0,29.78,SE,124,10.0,12.0,50,0.00,,---,0.00,VWS V14.01,2013-05-08 07:47:00,
2013-05-08 02:52:00,68.0,49.2,29.78,East,89,9.0,12.0,51,0.00,,---,0.00,VWS V14.01,2013-05-08 07:52:00,
2013-05-08 02:57:00,67.6,48.8,29.78,East,83,6.0,12.0,51,0.00,,---,0.00,VWS V14.01,2013-05-08 07:57:00,
2013-05-08 03:02:00,67.3,49.1,29.77,ESE,113,5.0,9.0,52,0.00,,---,0.00,VWS V14.01,2013-05-08 08:02:00,
2013-05-08 03:07:00,67.1,48.9,29.77,East,82,8.0,10.0,52,0.00,,---,0.00,VWS V14.01,2013-05-08 08:07:00,
2013-05-08 03:13:00,67.0,48.8,29.77,ESE,105,8.0,10.0,52,0.00,,---,0.00,VWS V14.01,2013-05-08 08:13:00,
2013-05-08 03:18:00,66.9,48.7,29.77,ESE,104,9.0,11.0,52,0.00,,---,0.00,VWS V14.01,2013-05-08 08:18:00,
2013-05-08 03:23:00,67.0,48.8,29.77,East,97,6.0,11.0,52,0.00,,---,0.00,VWS V14.01,2013-05-08 08:23:00,
2013-05-08 03:28:00,67.1,48.9,29.77,East,94,8.0,11.0,52,0.00,,---,0.00,VWS V14.01,2013-05-08 08:28:00,
2013-05-08 03:33:00,67.1,48.9,29.77,ENE,76,6.0,9.0,52,0.00,,---,0.00,VWS V14.01,2013-05-08 08:33:00,
2013-05-08 03:38:00,66.9,48.7,29.76,East,82,7.0,11.0,52,0.00,,---,0.00,VWS V14.01,2013-05-08 08:38:00,
2013-05-08 03:43:00,66.9,49.2,29.77,ESE,110,8.0,11.0,53,0.00,,---,0.00,VWS V14.01,2013-05-08 08:43:00,
2013-05-08 03:48:00,66.6,49.0,29.76,East,96,6.0,14.0,53,0.00,,---,0.00,VWS V14.01,2013-05-08 08:48:00,
2013-05-08 03:53:00,66.4,49.3,29.76,SE,139,5.0,14.0,54,0.00,,---,0.00,VWS V14.01,2013-05-08 08:53:00,
2013-05-08 03:58:00,66.3,49.2,29.76,SE,125,7.0,14.0,54,0.00,,---,0.00,VWS V14.01,2013-05-08 08:58:00,
2013-05-08 04:04:00,66.3,49.2,29.76,ESE,120,6.0,11.0,54,0.00,,---,0.00,VWS V14.01,2013-05-08 09:04:00,
2013-05-08 04:09:00,66.2,49.6,29.76,East,96,4.0,11.0,55,0.00,,---,0.00,VWS V14.01,2013-05-08 09:09:00,
2013-05-08 04:14:00,66.0,49.4,29.76,East,91,5.0,11.0,55,0.00,,---,0.00,VWS V14.01,2013-05-08 09:14:00,
2013-05-08 04:19:00,66.0,49.4,29.76,ESE,108,4.0,11.0,55,0.00,,---,0.00,VWS V14.01,2013-05-08 09:19:00,
2013-05-08 04:24:00,65.9,49.3,29.77,East,99,5.0,11.0,55,0.00,,---,0.00,VWS V14.01,2013-05-08 09:24:00,
2013-05-08 04:29:00,66.0,49.4,29.77,SE,135,8.0,11.0,55,0.00,,---,0.00,VWS V14.01,2013-05-08 09:29:00,
2013-05-08 04:34:00,66.0,49.9,29.77,ESE,113,4.0,8.0,56,0.00,,---,0.00,VWS V14.01,2013-05-08 09:34:00,
2013-05-08 04:39:00,66.0,49.9,29.77,ESE,112,6.0,10.0,56,0.00,,---,0.00,VWS V14.01,2013-05-08 09:39:00,
2013-05-08 04:44:00,66.1,50.0,29.77,SE,130,5.0,10.0,56,0.00,,---,0.00,VWS V14.01,2013-05-08 09:44:00,
2013-05-08 04:49:00,66.0,49.9,29.78,East,100,8.0,11.0,56,0.00,,---,0.00,VWS V14.01,2013-05-08 09:49:00,
2013-05-08 04:54:00,65.8,49.7,29.78,ESE,110,7.0,11.0,56,0.00,,---,0.00,VWS V14.01,2013-05-08 09:54:00,
2013-05-08 05:00:00,65.7,49.6,29.78,ESE,110,6.0,11.0,56,0.00,,---,0.00,VWS V14.01,2013-05-08 10:00:00,
2013-05-08 05:05:00,65.5,49.9,29.78,SE,128,6.0,9.0,57,0.00,,---,0.00,VWS V14.01,2013-05-08 10:05:00,
2013-05-08 05:10:00,65.2,49.6,29.78,ESE,110,5.0,9.0,57,0.00,,---,0.00,VWS V14.01,2013-05-08 10:10:00,
2013-05-08 05:15:00,65.0,49.9,29.78,SE,130,8.0,9.0,58,0.00,,---,0.00,VWS V14.01,2013-05-08 10:15:00,
2013-05-08 05:20:00,65.0,49.9,29.78,ESE,110,5.0,10.0,58,0.00,,---,0.00,VWS V14.01,2013-05-08 10:20:00,
2013-05-08 05:25:00,64.9,49.8,29.78,ESE,104,5.0,10.0,58,0.00,,---,0.00,VWS V14.01,2013-05-08 10:25:00,
2013-05-08 05:30:00,64.6,50.0,29.78,ESE,112,4.0,10.0,59,0.00,,---,0.00,VWS V14.01,2013-05-08 10:30:00,
2013-05-08 05:35:00,64.2,49.6,29.78,ESE,120,3.0,6.0,59,0.00,,---,0.00,VWS V14.01,2013-05-08 10:35:00,
2013-05-08 05:40:00,64.0,49.8,29.78,SE,127,4.0,6.0,60,0.00,,---,0.00,VWS V14.01,2013-05-08 10:40:00,
2013-05-08 05:46:00,64.2,50.0,29.78,East,84,3.0,8.0,60,0.00,,---,0.00,VWS V14.01,2013-05-08 10:46:00,
2013-05-08 05:51:00,64.3,50.1,29.78,SE,139,3.0,8.0,60,0.00,,---,0.00,VWS V14.01,2013-05-08 10:51:00,
2013-05-08 05:56:00,64.2,50.0,29.78,SE,135,5.0,8.0,60,0.00,,---,0.00,VWS V14.01,2013-05-08 10:56:00,
2013-05-08 06:01:00,64.1,50.0,29.79,ESE,107,5.0,5.0,60,0.00,,---,0.00,VWS V14.01,2013-05-08 11:01:00,
2013-05-08 06:06:00,63.9,50.2,29.79,ESE,117,3.0,6.0,61,0.00,,---,0.00,VWS V14.01,2013-05-08 11:06:00,
2013-05-08 06:11:00,64.0,50.3,29.79,East,93,4.0,7.0,61,0.00,,---,0.00,VWS V14.01,2013-05-08 11:11:00,
2013-05-08 06:16:00,63.9,50.2,29.79,East,92,4.0,7.0,61,0.00,,---,0.00,VWS V14.01,2013-05-08 11:16:00,
2013-05-08 06:21:00,63.7,50.0,29.79,East,100,3.0,7.0,61,0.00,,---,0.00,VWS V14.01,2013-05-08 11:21:00,
2013-05-08 06:26:00,63.3,50.1,29.79,ESE,122,3.0,7.0,62,0.00,,---,0.00,VWS V14.01,2013-05-08 11:26:00,
2013-05-08 06:31:00,62.9,50.1,29.79,East,98,3.0,5.0,63,0.00,,---,0.00,VWS V14.01,2013-05-08 11:31:00,
2013-05-08 06:37:00,62.5,50.2,29.79,East,89,5.0,8.0,64,0.00,,---,0.00,VWS V14.01,2013-05-08 11:37:00,
2013-05-08 06:42:00,62.4,50.1,29.79,East,99,7.0,8.0,64,0.00,,---,0.00,VWS V14.01,2013-05-08 11:42:00,
2013-05-08 06:47:00,62.4,50.1,29.79,East,86,9.0,10.0,64,0.00,,---,0.00,VWS V14.01,2013-05-08 11:47:00,
2013-05-08 06:52:00,62.3,50.0,29.79,East,94,6.0,10.0,64,0.00,,---,0.00,VWS V14.01,2013-05-08 11:52:00,
2013-05-08 06:57:00,62.3,50.0,29.79,ESE,108,7.0,10.0,64,0.00,,---,0.00,VWS V14.01,2013-05-08 11:57:00,
2013-05-08 07:02:00,62.4,50.1,29.79,ESE,110,6.0,10.0,64,0.00,,---,0.00,VWS V14.01,2013-05-08 12:02:00,
2013-05-08 07:07:00,62.9,50.5,29.79,ESE,120,6.0,10.0,64,0.00,,---,0.00,VWS V14.01,2013-05-08 12:07:00,
2013-05-08 07:12:00,63.4,50.6,29.79,East,84,7.0,10.0,63,0.00,,---,0.00,VWS V14.01,2013-05-08 12:12:00,
2013-05-08 07:17:00,63.9,51.1,29.79,East,96,4.0,10.0,63,0.00,,---,0.00,VWS V14.01,2013-05-08 12:17:00,
2013-05-08 07:23:00,64.4,51.1,29.79,ESE,108,6.0,10.0,62,0.00,,---,0.00,VWS V14.01,2013-05-08 12:23:00,
2013-05-08 07:28:00,65.0,51.2,29.80,ESE,110,8.0,10.0,61,0.00,,---,0.00,VWS V14.01,2013-05-08 12:28:00,
2013-05-08 07:33:00,65.3,51.1,29.80,SE,139,5.0,9.0,60,0.00,,---,0.00,VWS V14.01,2013-05-08 12:33:00,
2013-05-08 07:38:00,65.6,51.4,29.80,SSE,150,7.0,9.0,60,0.00,,---,0.00,VWS V14.01,2013-05-08 12:38:00,
2013-05-08 07:43:00,66.1,51.8,29.80,SE,138,6.0,11.0,60,0.00,,---,0.00,VWS V14.01,2013-05-08 12:43:00,
2013-05-08 07:48:00,66.5,51.8,29.80,SE,134,8.0,11.0,59,0.00,,---,0.00,VWS V14.01,2013-05-08 12:48:00,
2013-05-08 07:53:00,66.8,52.0,29.80,SE,134,6.0,11.0,59,0.00,,---,0.00,VWS V14.01,2013-05-08 12:53:00,
2013-05-08 07:58:00,67.2,51.9,29.80,SE,138,6.0,11.0,58,0.00,,---,0.00,VWS V14.01,2013-05-08 12:58:00,
2013-05-08 08:03:00,67.6,52.3,29.80,SE,132,12.0,12.0,58,0.00,,---,0.00,VWS V14.01,2013-05-08 13:03:00,
2013-05-08 08:08:00,67.9,52.1,29.80,SE,134,7.0,15.0,57,0.00,,---,0.00,VWS V14.01,2013-05-08 13:08:00,
2013-05-08 08:14:00,68.5,52.7,29.80,SE,127,11.0,15.0,57,0.00,,---,0.00,VWS V14.01,2013-05-08 13:14:00,
2013-05-08 08:19:00,69.1,52.8,29.80,SE,129,11.0,16.0,56,0.00,,---,0.00,VWS V14.01,2013-05-08 13:19:00,
2013-05-08 08:24:00,69.7,52.8,29.80,ESE,117,7.0,16.0,55,0.00,,---,0.00,VWS V14.01,2013-05-08 13:24:00,
2013-05-08 08:29:00,70.2,53.3,29.81,SSE,149,8.0,16.0,55,0.00,,---,0.00,VWS V14.01,2013-05-08 13:29:00,
2013-05-08 08:34:00,70.6,53.2,29.81,SE,133,12.0,17.0,54,0.00,,---,0.00,VWS V14.01,2013-05-08 13:34:00,
2013-05-08 08:39:00,71.0,53.5,29.81,SE,143,7.0,17.0,54,0.00,,---,0.00,VWS V14.01,2013-05-08 13:39:00,
2013-05-08 08:44:00,71.4,53.9,29.81,SE,135,7.0,17.0,54,0.00,,---,0.00,VWS V14.01,2013-05-08 13:44:00,
2013-05-08 08:49:00,71.8,54.3,29.80,SE,139,10.0,17.0,54,0.00,,---,0.00,VWS V14.01,2013-05-08 13:49:00,
2013-05-08 08:54:00,72.3,54.7,29.80,SE,136,8.0,18.0,54,0.00,,---,0.00,VWS V14.01,2013-05-08 13:54:00,
2013-05-08 09:00:00,72.7,54.6,29.80,ESE,117,12.0,18.0,53,0.00,,---,0.00,VWS V14.01,2013-05-08 14:00:00,
2013-05-08 09:05:00,73.2,55.6,29.80,ESE,120,10.0,20.0,54,0.00,,---,0.00,VWS V14.01,2013-05-08 14:05:00,
2013-05-08 09:10:00,73.8,55.6,29.80,SSE,156,11.0,20.0,53,0.00,,---,0.00,VWS V14.01,2013-05-08 14:10:00,
2013-05-08 09:15:00,73.8,55.6,29.80,ESE,121,14.0,21.0,53,0.00,,---,0.00,VWS V14.01,2013-05-08 14:15:00,
2013-05-08 09:20:00,73.9,55.7,29.80,SSE,148,11.0,21.0,53,0.00,,---,0.00,VWS V14.01,2013-05-08 14:20:00,
2013-05-08 09:25:00,74.0,56.3,29.81,South,181,10.0,23.0,54,0.00,,---,0.00,VWS V14.01,2013-05-08 14:25:00,
2013-05-08 09:30:00,74.8,56.5,29.81,SE,136,10.0,23.0,53,0.00,,---,0.00,VWS V14.01,2013-05-08 14:30:00,
2013-05-08 09:35:00,75.3,57.0,29.81,South,184,14.0,20.0,53,0.00,,---,0.00,VWS V14.01,2013-05-08 14:35:00,
2013-05-08 09:40:00,75.8,57.5,29.81,South,188,9.0,20.0,53,0.00,,---,0.00,VWS V14.01,2013-05-08 14:40:00,
2013-05-08 09:46:00,76.2,57.8,29.81,ESE,122,12.0,24.0,53,0.00,,---,0.00,VWS V14.01,2013-05-08 14:46:00,
2013-05-08 09:51:00,76.9,58.5,29.81,South,182,11.0,24.0,53,0.00,,---,0.00,VWS V14.01,2013-05-08 14:51:00,
2013-05-08 09:56:00,77.5,59.6,29.81,SSE,163,9.0,24.0,54,0.00,,---,0.00,VWS V14.01,2013-05-08 14:56:00,
2013-05-08 10:01:00,78.1,59.6,29.81,South,175,10.0,18.0,53,0.00,,---,0.00,VWS V14.01,2013-05-08 15:01:00,
2013-05-08 10:06:00,78.5,60.0,29.81,SE,143,6.0,18.0,53,0.00,,---,0.00,VWS V14.01,2013-05-08 15:06:00,
2013-05-08 10:11:00,78.6,59.5,29.81,South,184,12.0,19.0,52,0.00,,---,0.00,VWS V14.01,2013-05-08 15:11:00,
2013-05-08 10:16:00,78.9,60.3,29.81,SSE,162,16.0,19.0,53,0.00,,---,0.00,VWS V14.01,2013-05-08 15:16:00,
2013-05-08 10:21:00,79.2,60.6,29.81,SW,229,9.0,19.0,53,0.00,,---,0.00,VWS V14.01,2013-05-08 15:21:00,
2013-05-08 10:26:00,79.5,60.9,29.81,South,169,16.0,23.0,53,0.00,,---,0.00,VWS V14.01,2013-05-08 15:26:00,
2013-05-08 10:31:00,79.7,61.1,29.81,SSW,194,16.0,16.0,53,0.00,,---,0.00,VWS V14.01,2013-05-08 15:31:00,
2013-05-08 10:37:00,79.9,61.3,29.81,SSE,165,7.0,20.0,53,0.00,,---,0.00,VWS V14.01,2013-05-08 15:37:00,
2013-05-08 10:42:00,80.3,61.1,29.81,SSW,198,17.0,20.0,52,0.00,,---,0.00,VWS V14.01,2013-05-08 15:42:00,
2013-05-08 10:47:00,80.0,60.8,29.80,SSW,197,14.0,21.0,52,0.00,,---,0.00,VWS V14.01,2013-05-08 15:47:00,
2013-05-08 10:52:00,80.5,61.3,29.80,SSW,206,14.0,24.0,52,0.00,,---,0.00,VWS V14.01,2013-05-08 15:52:00,
2013-05-08 10:57:00,80.5,61.3,29.80,South,187,9.0,24.0,52,0.00,,---,0.00,VWS V14.01,2013-05-08 15:57:00,
2013-05-08 11:02:00,80.5,61.8,29.80,South,181,6.0,16.0,53,0.00,,---,0.00,VWS V14.01,2013-05-08 16:02:00,
2013-05-08 11:07:00,80.9,61.1,29.80,SW,224,10.0,21.0,51,0.00,,---,0.00,VWS V14.01,2013-05-08 16:07:00,
2013-05-08 11:12:00,81.2,61.4,29.80,SW,221,10.0,21.0,51,0.00,,---,0.00,VWS V14.01,2013-05-08 16:12:00,
2013-05-08 11:18:00,81.5,61.7,29.80,South,176,9.0,21.0,51,0.00,,---,0.00,VWS V14.01,2013-05-08 16:18:00,
2013-05-08 11:23:00,81.3,61.5,29.80,South,183,8.0,21.0,51,0.00,,---,0.00,VWS V14.01,2013-05-08 16:23:00,
2013-05-08 11:28:00,81.9,62.0,29.80,South,189,10.0,21.0,51,0.00,,---,0.00,VWS V14.01,2013-05-08 16:28:00,
2013-05-08 11:33:00,82.0,61.5,29.80,South,174,9.0,17.0,50,0.00,,---,0.00,VWS V14.01,2013-05-08 16:33:00,
2013-05-08 11:38:00,81.7,61.3,29.80,South,169,7.0,20.0,50,0.00,,---,0.00,VWS V14.01,2013-05-08 16:38:00,
2013-05-08 11:43:00,81.9,61.5,29.80,SSW,198,13.0,20.0,50,0.00,,---,0.00,VWS V14.01,2013-05-08 16:43:00,
2013-05-08 11:48:00,82.1,61.6,29.80,SSE,153,10.0,22.0,50,0.00,,---,0.00,VWS V14.01,2013-05-08 16:48:00,
2013-05-08 11:53:00,82.3,61.8,29.79,SSW,195,7.0,22.0,50,0.00,,---,0.00,VWS V14.01,2013-05-08 16:53:00,
2013-05-08 11:58:00,83.0,62.5,29.79,SSE,159,11.0,22.0,50,0.00,,---,0.00,VWS V14.01,2013-05-08 16:58:00,
2013-05-08 12:04:00,83.0,61.9,29.79,SSE,153,9.0,18.0,49,0.00,,---,0.00,VWS V14.01,2013-05-08 17:04:00,
2013-05-08 12:09:00,82.8,61.7,29.79,SE,142,8.0,18.0,49,0.00,,---,0.00,VWS V14.01,2013-05-08 17:09:00,
2013-05-08 12:14:00,83.2,62.1,29.79,South,170,13.0,18.0,49,0.00,,---,0.00,VWS V14.01,2013-05-08 17:14:00,
2013-05-08 12:19:00,83.6,61.8,29.79,SSE,165,13.0,18.0,48,0.00,,---,0.00,VWS V14.01,2013-05-08 17:19:00,
2013-05-08 12:24:00,83.6,62.4,29.79,SSW,200,11.0,18.0,49,0.00,,---,0.00,VWS V14.01,2013-05-08 17:24:00,
2013-05-08 12:29:00,84.1,62.3,29.78,SSE,165,8.0,21.0,48,0.00,,---,0.00,VWS V14.01,2013-05-08 17:29:00,
2013-05-08 12:34:00,84.3,61.9,29.78,SSW,211,11.0,21.0,47,0.00,,---,0.00,VWS V14.01,2013-05-08 17:34:00,
2013-05-08 12:39:00,84.4,62.6,29.78,SSE,159,9.0,21.0,48,0.00,,---,0.00,VWS V14.01,2013-05-08 17:39:00,
2013-05-08 12:44:00,85.2,62.1,29.78,South,172,14.0,23.0,46,0.00,,---,0.00,VWS V14.01,2013-05-08 17:44:00,
2013-05-08 12:50:00,85.1,62.6,29.78,SSW,206,11.0,23.0,47,0.00,,---,0.00,VWS V14.01,2013-05-08 17:50:00,
2013-05-08 12:55:00,85.5,62.4,29.77,West,270,7.0,23.0,46,0.00,,---,0.00,VWS V14.01,2013-05-08 17:55:00,
2013-05-08 13:00:00,85.6,62.5,29.77,SSW,198,15.0,23.0,46,0.00,,---,0.00,VWS V14.01,2013-05-08 18:00:00,
2013-05-08 13:05:00,85.5,62.4,29.77,SSW,203,10.0,18.0,46,0.00,,---,0.00,VWS V14.01,2013-05-08 18:05:00,
2013-05-08 13:10:00,85.6,62.5,29.77,South,191,7.0,18.0,46,0.00,,---,0.00,VWS V14.01,2013-05-08 18:10:00,
2013-05-08 13:15:00,85.5,61.8,29.77,SSE,166,14.0,18.0,45,0.00,,---,0.00,VWS V14.01,2013-05-08 18:15:00,
2013-05-08 13:20:00,85.3,62.2,29.77,SSW,193,7.0,19.0,46,0.00,,---,0.00,VWS V14.01,2013-05-08 18:20:00,
2013-05-08 13:25:00,86.0,62.2,29.76,SW,221,16.0,19.0,45,0.00,,---,0.00,VWS V14.01,2013-05-08 18:25:00,
2013-05-08 13:30:00,85.7,62.6,29.77,SSE,149,8.0,19.0,46,0.00,,---,0.00,VWS V14.01,2013-05-08 18:30:00,
2013-05-08 13:36:00,85.6,61.8,29.76,SSW,207,11.0,21.0,45,0.00,,---,0.00,VWS V14.01,2013-05-08 18:36:00,
2013-05-08 13:41:00,85.3,62.2,29.76,SE,139,6.0,21.0,46,0.00,,---,0.00,VWS V14.01,2013-05-08 18:41:00,
2013-05-08 13:46:00,85.7,62.6,29.76,SSE,158,15.0,21.0,46,0.00,,---,0.00,VWS V14.01,2013-05-08 18:46:00,
2013-05-08 13:51:00,86.3,63.1,29.76,South,170,15.0,21.0,46,0.00,,---,0.00,VWS V14.01,2013-05-08 18:51:00,
2013-05-08 13:56:00,86.0,62.2,29.76,SSE,162,11.0,27.0,45,0.00,,---,0.00,VWS V14.01,2013-05-08 18:56:00,
2013-05-08 14:01:00,86.0,62.2,29.76,ESE,122,15.0,18.0,45,0.00,,---,0.00,VWS V14.01,2013-05-08 19:01:00,
2013-05-08 14:06:00,85.8,62.0,29.76,SE,146,13.0,20.0,45,0.00,,---,0.00,VWS V14.01,2013-05-08 19:06:00,
2013-05-08 14:11:00,85.4,62.3,29.76,SSW,211,10.0,20.0,46,0.00,,---,0.00,VWS V14.01,2013-05-08 19:11:00,
2013-05-08 14:16:00,85.5,62.4,29.75,SE,135,9.0,20.0,46,0.00,,---,0.00,VWS V14.01,2013-05-08 19:16:00,
2013-05-08 14:21:00,85.1,62.0,29.75,SE,139,13.0,22.0,46,0.00,,---,0.00,VWS V14.01,2013-05-08 19:21:00,
2013-05-08 14:27:00,85.9,63.3,29.75,SSE,167,11.0,22.0,47,0.00,,---,0.00,VWS V14.01,2013-05-08 19:27:00,
2013-05-08 14:32:00,86.0,62.8,29.75,WSW,239,7.0,13.0,46,0.00,,---,0.00,VWS V14.01,2013-05-08 19:32:00,
2013-05-08 14:37:00,86.3,62.5,29.75,SE,146,10.0,19.0,45,0.00,,---,0.00,VWS V14.01,2013-05-08 19:37:00,
2013-05-08 14:42:00,86.5,62.7,29.75,SSE,155,13.0,20.0,45,0.00,,---,0.00,VWS V14.01,2013-05-08 19:42:00,
2013-05-08 14:47:00,86.5,62.0,29.74,SSE,148,14.0,26.0,44,0.00,,---,0.00,VWS V14.01,2013-05-08 19:47:00,
2013-05-08 14:52:00,86.0,62.8,29.74,SE,145,11.0,26.0,46,0.00,,---,0.00,VWS V14.01,2013-05-08 19:52:00,
2013-05-08 14:57:00,85.9,62.7,29.74,South,187,15.0,26.0,46,0.00,,---,0.00,VWS V14.01,2013-05-08 19:57:00,
2013-05-08 15:02:00,85.2,62.1,29.74,SSE,160,13.0,25.0,46,0.00,,---,0.00,VWS V14.01,2013-05-08 20:02:00,
2013-05-08 15:07:00,85.3,62.8,29.74,SE,135,15.0,25.0,47,0.00,,---,0.00,VWS V14.01,2013-05-08 20:07:00,
2013-05-08 15:13:00,85.4,63.5,29.74,SSE,153,16.0,25.0,48,0.00,,---,0.00,VWS V14.01,2013-05-08 20:13:00,
2013-05-08 15:18:00,85.8,62.7,29.73,South,173,7.0,25.0,46,0.00,,---,0.00,VWS V14.01,2013-05-08 20:18:00,
2013-05-08 15:23:00,86.1,62.9,29.73,SE,131,9.0,25.0,46,0.00,,---,0.00,VWS V14.01,2013-05-08 20:23:00,
2013-05-08 15:28:00,85.7,63.2,29.73,SSE,166,14.0,25.0,47,0.00,,---,0.00,VWS V14.01,2013-05-08 20:28:00,
2013-05-08 15:33:00,85.5,62.4,29.73,SSE,164,20.0,21.0,46,0.00,,---,0.00,VWS V14.01,2013-05-08 20:33:00,
2013-05-08 15:38:00,85.6,62.5,29.72,SE,141,18.0,21.0,46,0.00,,---,0.00,VWS V14.01,2013-05-08 20:38:00,
2013-05-08 15:43:00,85.6,63.1,29.72,SSE,165,11.0,21.0,47,0.00,,---,0.00,VWS V14.01,2013-05-08 20:43:00,
2013-05-08 15:48:00,85.7,62.6,29.72,SE,142,14.0,23.0,46,0.00,,---,0.00,VWS V14.01,2013-05-08 20:48:00,
2013-05-08 15:53:00,85.4,62.3,29.72,SSE,159,18.0,25.0,46,0.00,,---,0.00,VWS V14.01,2013-05-08 20:53:00,
2013-05-08 15:58:00,85.0,62.5,29.72,SSE,156,13.0,25.0,47,0.00,,---,0.00,VWS V14.01,2013-05-08 20:58:00,
2013-05-08 16:04:00,85.0,62.5,29.72,SSW,194,15.0,19.0,47,0.00,,---,0.00,VWS V14.01,2013-05-08 21:04:00,
2013-05-08 16:09:00,84.8,63.0,29.72,South,174,16.0,25.0,48,0.00,,---,0.00,VWS V14.01,2013-05-08 21:09:00,
2013-05-08 16:14:00,84.8,63.0,29.71,SW,214,11.0,25.0,48,0.00,,---,0.00,VWS V14.01,2013-05-08 21:14:00,
2013-05-08 16:19:00,84.9,62.4,29.71,SSE,157,13.0,25.0,47,0.00,,---,0.00,VWS V14.01,2013-05-08 21:19:00,
2013-05-08 16:24:00,84.9,62.4,29.71,South,170,14.0,25.0,47,0.00,,---,0.00,VWS V14.01,2013-05-08 21:24:00,
2013-05-08 16:29:00,84.5,62.7,29.71,South,179,5.0,25.0,48,0.00,,---,0.00,VWS V14.01,2013-05-08 21:29:00,
2013-05-08 16:34:00,84.7,62.9,29.71,SSW,201,12.0,17.0,48,0.00,,---,0.00,VWS V14.01,2013-05-08 21:34:00,
2013-05-08 16:39:00,84.9,63.0,29.70,SE,136,17.0,23.0,48,0.00,,---,0.00,VWS V14.01,2013-05-08 21:39:00,
2013-05-08 16:44:00,84.5,62.7,29.69,SSE,158,17.0,23.0,48,0.00,,---,0.00,VWS V14.01,2013-05-08 21:44:00,
2013-05-08 16:50:00,84.2,63.0,29.68,SE,138,10.0,23.0,49,0.00,,---,0.00,VWS V14.01,2013-05-08 21:50:00,
2013-05-08 16:55:00,83.9,62.7,29.68,SE,127,11.0,23.0,49,0.00,,---,0.00,VWS V14.01,2013-05-08 21:55:00,
2013-05-08 17:00:00,83.7,62.5,29.68,SSE,149,15.0,23.0,49,0.00,,---,0.00,VWS V14.01,2013-05-08 22:00:00,
2013-05-08 17:05:00,83.4,62.3,29.68,SSE,148,12.0,22.0,49,0.00,,---,0.00,VWS V14.01,2013-05-08 22:05:00,
2013-05-08 17:10:00,83.1,62.5,29.68,SE,143,15.0,22.0,50,0.00,,---,0.00,VWS V14.01,2013-05-08 22:10:00,
2013-05-08 17:15:00,82.9,62.4,29.68,SE,136,13.0,26.0,50,0.00,,---,0.00,VWS V14.01,2013-05-08 22:15:00,
2013-05-08 17:20:00,82.6,62.7,29.68,SE,132,13.0,26.0,51,0.00,,---,0.00,VWS V14.01,2013-05-08 22:20:00,
2013-05-08 17:25:00,82.3,62.4,29.69,SE,134,12.0,26.0,51,0.00,,---,0.00,VWS V14.01,2013-05-08 22:25:00,
2013-05-08 17:30:00,82.2,62.3,29.69,SSW,203,18.0,26.0,51,0.00,,---,0.00,VWS V14.01,2013-05-08 22:30:00,
2013-05-08 17:35:00,81.9,62.0,29.69,South,184,12.0,20.0,51,0.00,,---,0.00,VWS V14.01,2013-05-08 22:35:00,
2013-05-08 17:41:00,81.7,62.4,29.68,SSE,162,16.0,20.0,52,0.00,,---,0.00,VWS V14.01,2013-05-08 22:41:00,
2013-05-08 17:46:00,81.5,62.2,29.68,SE,142,6.0,20.0,52,0.00,,---,0.00,VWS V14.01,2013-05-08 22:46:00,
2013-05-08 17:51:00,81.3,62.0,29.68,South,188,19.0,21.0,52,0.00,,---,0.00,VWS V14.01,2013-05-08 22:51:00,
2013-05-08 17:56:00,81.2,61.9,29.69,South,173,6.0,21.0,52,0.00,,---,0.00,VWS V14.01,2013-05-08 22:56:00,
2013-05-08 18:01:00,81.0,61.7,29.69,South,181,9.0,12.0,52,0.00,,---,0.00,VWS V14.01,2013-05-08 23:01:00,
2013-05-08 18:06:00,80.9,62.2,29.68,SE,133,11.0,15.0,53,0.00,,---,0.00,VWS V14.01,2013-05-08 23:06:00,
2013-05-08 18:11:00,80.5,62.3,29.69,SSW,203,10.0,17.0,54,0.00,,---,0.00,VWS V14.01,2013-05-08 23:11:00,
2013-05-08 18:16:00,80.6,61.9,29.71,SW,228,8.0,18.0,53,0.00,,---,0.00,VWS V14.01,2013-05-08 23:16:00,
2013-05-08 18:21:00,80.5,61.8,29.73,SW,226,8.0,18.0,53,0.00,,---,0.00,VWS V14.01,2013-05-08 23:21:00,
2013-05-08 18:27:00,80.4,62.8,29.72,South,191,6.0,18.0,55,0.00,,---,0.00,VWS V14.01,2013-05-08 23:27:00,
2013-05-08 18:32:00,79.6,64.0,29.71,SSE,147,5.0,6.0,59,0.00,,---,0.00,VWS V14.01,2013-05-08 23:32:00,
2013-05-08 18:37:00,78.1,64.9,29.71,SE,141,4.0,10.0,64,0.00,,---,0.00,VWS V14.01,2013-05-08 23:37:00,
2013-05-08 18:42:00,77.2,64.5,29.71,SSE,149,5.0,10.0,65,0.00,,---,0.00,VWS V14.01,2013-05-08 23:42:00,
2013-05-08 18:47:00,77.3,63.7,29.71,SE,136,5.0,10.0,63,0.00,,---,0.00,VWS V14.01,2013-05-08 23:47:00,
2013-05-08 18:52:00,77.8,64.7,29.70,ESE,102,6.0,10.0,64,0.00,,---,0.00,VWS V14.01,2013-05-08 23:52:00,
2013-05-08 18:57:00,78.1,64.5,29.70,East,88,4.0,11.0,63,0.00,,---,0.00,VWS V14.01,2013-05-08 23:57:00,
2013-05-08 19:02:00,78.5,64.0,29.70,SSE,156,5.0,9.0,61,0.00,,---,0.00,VWS V14.01,2013-05-09 00:02:00,
2013-05-08 19:07:00,78.6,64.0,29.69,SSE,148,8.0,10.0,61,0.00,,---,0.00,VWS V14.01,2013-05-09 00:07:00,
2013-05-08 19:12:00,79.0,63.9,29.69,SSE,156,9.0,17.0,60,0.00,,---,0.00,VWS V14.01,2013-05-09 00:12:00,
2013-05-08 19:18:00,79.5,63.9,29.68,ESE,117,11.0,17.0,59,0.00,,---,0.00,VWS V14.01,2013-05-09 00:18:00,
2013-05-08 19:23:00,79.8,63.7,29.67,SE,134,13.0,17.0,58,0.00,,---,0.00,VWS V14.01,2013-05-09 00:23:00,
2013-05-08 19:28:00,80.0,55.5,29.66,SSE,149,13.0,37.0,43,0.00,,---,0.00,VWS V14.01,2013-05-09 00:28:00,
2013-05-08 19:33:00,80.2,53.7,29.66,SSE,152,19.0,27.0,40,0.00,,---,0.00,VWS V14.01,2013-05-09 00:33:00,
2013-05-08 19:38:00,79.7,62.1,29.66,SE,124,11.0,27.0,55,0.00,,---,0.00,VWS V14.01,2013-05-09 00:38:00,
2013-05-08 19:43:00,79.4,63.3,29.66,SE,131,8.0,27.0,58,0.00,,---,0.00,VWS V14.01,2013-05-09 00:43:00,
2013-05-08 19:48:00,79.2,63.7,29.67,SSE,148,9.0,27.0,59,0.00,,---,0.00,VWS V14.01,2013-05-09 00:48:00,
2013-05-08 19:53:00,79.0,63.5,29.66,SE,135,15.0,27.0,59,0.00,,---,0.00,VWS V14.01,2013-05-09 00:53:00,
2013-05-08 19:58:00,78.9,63.4,29.66,SE,145,16.0,27.0,59,0.00,,---,0.00,VWS V14.01,2013-05-09 00:58:00,
2013-05-08 20:04:00,78.7,63.7,29.66,SE,146,14.0,22.0,60,0.00,,---,0.00,VWS V14.01,2013-05-09 01:04:00,
2013-05-08 20:09:00,78.2,64.1,29.66,South,175,12.0,22.0,62,0.00,,---,0.00,VWS V14.01,2013-05-09 01:09:00,
2013-05-08 20:14:00,77.8,63.8,29.65,SSE,150,10.0,26.0,62,0.00,,---,0.00,VWS V14.01,2013-05-09 01:14:00,
2013-05-08 20:19:00,77.5,63.9,29.64,SSE,153,6.0,26.0,63,0.00,,---,0.00,VWS V14.01,2013-05-09 01:19:00,
2013-05-08 20:24:00,77.2,63.6,29.62,ESE,122,15.0,26.0,63,0.00,,---,0.00,VWS V14.01,2013-05-09 01:24:00,
2013-05-08 20:29:00,77.0,63.0,29.62,South,174,14.0,26.0,62,0.00,,---,0.00,VWS V14.01,2013-05-09 01:29:00,
2013-05-08 20:34:00,77.0,62.5,29.63,SSE,156,11.0,21.0,61,0.00,,---,0.00,VWS V14.01,2013-05-09 01:34:00,
2013-05-08 20:39:00,76.5,62.5,29.62,SE,138,11.0,26.0,62,0.00,,---,0.00,VWS V14.01,2013-05-09 01:39:00,
2013-05-08 20:44:00,76.5,62.5,29.62,SSE,155,13.0,29.0,62,0.00,,---,0.00,VWS V14.01,2013-05-09 01:44:00,
2013-05-08 20:49:00,76.4,62.9,29.63,SE,131,21.0,31.0,63,0.00,,---,0.00,VWS V14.01,2013-05-09 01:49:00,
2013-05-08 20:55:00,76.1,63.0,29.64,ESE,117,14.0,31.0,64,0.00,,---,0.00,VWS V14.01,2013-05-09 01:55:00,
2013-05-08 21:00:00,75.8,63.2,29.65,SSE,151,15.0,31.0,65,0.00,,---,0.00,VWS V14.01,2013-05-09 02:00:00,
2013-05-08 21:05:00,75.5,63.4,29.66,SE,146,18.0,26.0,66,0.00,,---,0.00,VWS V14.01,2013-05-09 02:05:00,
2013-05-08 21:10:00,75.2,63.5,29.67,SSE,150,12.0,26.0,67,0.00,,---,0.00,VWS V14.01,2013-05-09 02:10:00,
2013-05-08 21:15:00,74.9,63.2,29.67,SSE,154,16.0,28.0,67,0.00,,---,0.00,VWS V14.01,2013-05-09 02:15:00,
2013-05-08 21:20:00,74.8,63.5,29.68,SE,138,14.0,28.0,68,0.00,,---,0.00,VWS V14.01,2013-05-09 02:20:00,
2013-05-08 21:25:00,74.6,63.3,29.68,SSE,149,26.0,28.0,68,0.00,,---,0.00,VWS V14.01,2013-05-09 02:25:00,
2013-05-08 21:30:00,74.5,63.3,29.68,SE,131,17.0,28.0,68,0.00,,---,0.00,VWS V14.01,2013-05-09 02:30:00,
2013-05-08 21:35:00,74.4,63.2,29.68,South,170,15.0,27.0,68,0.00,,---,0.00,VWS V14.01,2013-05-09 02:35:00,
2013-05-08 21:41:00,74.2,63.4,29.68,South,183,13.0,27.0,69,0.00,,---,0.00,VWS V14.01,2013-05-09 02:41:00,
2013-05-08 21:46:00,74.1,63.3,29.68,SE,139,15.0,27.0,69,0.00,,---,0.00,VWS V14.01,2013-05-09 02:46:00,
2013-05-08 21:51:00,73.9,63.1,29.69,SE,141,15.0,27.0,69,0.00,,---,0.00,VWS V14.01,2013-05-09 02:51:00,
2013-05-08 21:56:00,73.7,63.3,29.69,SSE,166,11.0,27.0,70,0.00,,---,0.00,VWS V14.01,2013-05-09 02:56:00,
2013-05-08 22:01:00,73.4,63.0,29.69,SSE,150,20.0,22.0,70,0.00,,---,0.00,VWS V14.01,2013-05-09 03:01:00,
2013-05-08 22:06:00,73.3,63.3,29.69,SSE,149,11.0,22.0,71,0.00,,---,0.00,VWS V14.01,2013-05-09 03:06:00,
2013-05-08 22:11:00,73.1,63.2,29.69,South,174,11.0,22.0,71,0.00,,---,0.00,VWS V14.01,2013-05-09 03:11:00,
2013-05-08 22:16:00,72.9,63.3,29.70,SSE,162,10.0,22.0,72,0.00,,---,0.00,VWS V14.01,2013-05-09 03:16:00,
2013-05-08 22:21:00,72.7,63.2,29.71,South,174,12.0,22.0,72,0.00,,---,0.00,VWS V14.01,2013-05-09 03:21:00,
2013-05-08 22:26:00,72.6,63.5,29.72,SSE,150,10.0,22.0,73,0.00,,---,0.00,VWS V14.01,2013-05-09 03:26:00,
2013-05-08 22:32:00,72.4,63.3,29.72,SSE,152,11.0,14.0,73,0.00,,---,0.00,VWS V14.01,2013-05-09 03:32:00,
2013-05-08 22:37:00,72.2,63.5,29.72,SSE,152,7.0,14.0,74,0.00,,---,0.00,VWS V14.01,2013-05-09 03:37:00,
2013-05-08 22:42:00,72.1,63.4,29.73,SSE,159,9.0,15.0,74,0.00,,---,0.00,VWS V14.01,2013-05-09 03:42:00,
2013-05-08 22:47:00,72.2,63.5,29.73,SE,146,8.0,17.0,74,0.00,,---,0.00,VWS V14.01,2013-05-09 03:47:00,
2013-05-08 22:52:00,72.1,63.4,29.74,SSW,193,8.0,17.0,74,0.00,,---,0.00,VWS V14.01,2013-05-09 03:52:00,
2013-05-08 22:57:00,72.0,63.3,29.74,SSE,156,11.0,17.0,74,0.00,,---,0.00,VWS V14.01,2013-05-09 03:57:00,
2013-05-08 23:01:00,72.0,63.3,29.74,SE,136,8.0,11.0,74,0.00,,---,0.00,VWS V14.01,2013-05-09 04:01:00,
2013-05-08 23:04:00,71.7,63.0,29.74,South,173,7.0,11.0,74,0.00,,---,0.00,VWS V14.01,2013-05-09 04:04:00,
2013-05-08 23:06:00,71.6,63.3,29.74,SE,146,7.0,11.0,75,0.00,,---,0.00,VWS V14.01,2013-05-09 04:06:00,
2013-05-08 23:11:00,71.2,62.9,29.74,SSE,149,10.0,12.0,75,0.00,,---,0.00,VWS V14.01,2013-05-09 04:11:00,
2013-05-08 23:16:00,71.1,63.2,29.74,SSE,167,7.0,16.0,76,0.00,,---,0.00,VWS V14.01,2013-05-09 04:16:00,
2013-05-08 23:21:00,70.9,63.0,29.74,SE,143,9.0,16.0,76,0.00,,---,0.00,VWS V14.01,2013-05-09 04:21:00,
2013-05-08 23:26:00,70.8,62.9,29.75,SSE,159,7.0,16.0,76,0.00,,---,0.00,VWS V14.01,2013-05-09 04:26:00,
2013-05-08 23:31:00,70.6,63.0,29.74,SE,136,9.0,11.0,77,0.00,,---,0.00,VWS V14.01,2013-05-09 04:31:00,
2013-05-08 23:36:00,70.6,63.0,29.74,SSE,156,14.0,16.0,77,0.00,,---,0.00,VWS V14.01,2013-05-09 04:36:00,
2013-05-08 23:41:00,70.7,63.1,29.74,SSE,153,9.0,17.0,77,0.00,,---,0.00,VWS V14.01,2013-05-09 04:41:00,
2013-05-08 23:47:00,70.6,63.0,29.74,SE,139,13.0,17.0,77,0.00,,---,0.00,VWS V14.01,2013-05-09 04:47:00,
2013-05-08 23:52:00,70.6,63.0,29.74,SE,143,9.0,17.0,77,0.00,,---,0.00,VWS V14.01,2013-05-09 04:52:00,
2013-05-08 23:57:00,70.5,63.0,29.73,SE,141,11.0,17.0,77,0.00,,---,0.00,VWS V14.01,2013-05-09 04:57:00,